Other Public Products
Issued by NWS Charleston, SC

Current Version | Previous Version | Graphics & Text | Print | Product List | Glossary On
Versions: 1 2 3 4 5 6 7 8 9 10 11 12 13 14 15 16 17 18 19 20 21 22 23 24 25 26 27 28 29 30 31 32 33 34 35 36 37 38 39 40 41 42 43 44 45 46 47 48 49 50
000
FPUS82 KCHS 282127
OPUCHS

TEST...KCHS/KSAV Gateway Observations...TEST
National Weather Service Charleston SC
500 PM EDT TUE MAR 28 2017

NOTE: "fair" indicates few or no clouds below 12,000 feet with no
significant weather and/or obstructions to visibility.

SCZ050-WAZ558-NCZ071-TXZ119-213-PAZ071-DCZ001-FLZ074-172-MI076-
NYZ176-178-MAZ016-IL014-TNZ027-NJZ106-GAZ044-MD014-282200-

...Gateway Observations for Charleston International...

CITY           SKY/WX    TMP DP  RH WIND       PRES   REMARKS
Chas Airport   PTSUNNY   80  60  50 SW17      29.89F
Seattle        LGT RAIN  50  44  80 S10       30.21F
Charlotte      PTSUNNY   77  52  41 N12G17    29.89S
Dallas DFW     PTSUNNY   79  67  66 SE18      29.71F
Dallas Love    CLOUDY    80  65  59 SE18      29.73F
Philladelphia  LGT RAIN  54  50  86 NE8       29.85R FOG
Wash National  PTSUNNY   73  55  53 NW9       29.82F
Baltimore      PTSUNNY   70  57  63 W8        29.81F
Miami          MOSUNNY   80  64  58 SE9       29.97F
Detroit        CLOUDY    49  39  68 N8        30.09R
Newark         CLOUDY    45  44  97 N6        29.88R
Laguardia      CLOUDY    43  39  86 NE12      29.88S
J F K          CLOUDY    47  45  93 N8        29.89R
Boston Logan   LGT RAIN  39  38  96 E8        29.98F FOG     WCI  33
Ft. Lauderdale MOSUNNY   78  63  59 SE10      29.97F
Chicago O`Hare PTSUNNY   48  37  65 NE14      30.14R
Chicago Midway CLOUDY    45  37  73 N13G23    30.15R
Houston Bush   MOSUNNY   82  68  62 SE26      29.80F
Houston Hobby  MOSUNNY   82  67  60 SE16G28   29.80F
Nashville      PTSUNNY   71  51  49 NE9       30.00F
Atlanta        MOSUNNY   78  59  51 N12G17    29.94F

$$

GAZ044-118-TXZ119-213-NCZ071-DCZ001-MDZ014-506-PAZ021-071-NJZ106-
NYZ176-178-MAZ106-OHZ011-021-055-MIZ076-KYZ091-ILZ014-INZ047-
MNZ060-ONZ431-282200-

...Gateway Observations for Savannah International...

CITY           SKY/WX    TMP DP  RH WIND       PRES   REMARKS
Savannah Arpt  MOSUNNY   86  54  33 SW16G22   29.91F
Atlanta        MOSUNNY   78  59  51 N12G17    29.94F
Charlotte      PTSUNNY   77  52  41 N12G17    29.89S
Dallas DFW     PTSUNNY   79  67  66 SE18      29.71F
Houston Bush   MOSUNNY   82  68  62 SE26      29.80F
Wash National  PTSUNNY   73  55  53 NW9       29.82F
Wash Dulles    PTSUNNY   69  54  58 NW8       29.83S
Baltimore      PTSUNNY   70  57  63 W8        29.81F
Philadelphia   LGT RAIN  54  50  86 NE8       29.85R FOG
Newark         CLOUDY    45  44  97 N6        29.88R
Laguardia      CLOUDY    43  39  86 NE12      29.88S
J F K          CLOUDY    47  45  93 N8        29.89R
Boston         LGT RAIN  39  38  96 E8        29.98F FOG     WCI  33
Pittsburg      CLOUDY    58  51  78 NW14      29.94R
Akron          CLOUDY    47  40  76 NW14      30.02R
Cleveland      CLOUDY    45  38  76 NW9       30.08R
Cincinnati     CLOUDY    58  50  75 NW10      30.03R
Columbus       MOSUNNY   59  49  68 N14       30.00S
Detroit        CLOUDY    49  39  68 N8        30.09R
Chicago O`Hare PTSUNNY   48  37  65 NE14      30.14R
Minneapolis    PTSUNNY   64  28  25 SE5       30.12F
Indianapolis   CLOUDY    56  46  69 N10       30.06S
Toronto Canada PTSUNNY   45  37  76 N17G24    30.03R

$$




USA.gov is the U.S. government's official web portal to all federal, state and local government web resources and services.